Location: Lniano
(53.5594°N, 18.2306°E)
Time: 15:08:02
(UTC+02:00)

ISS - Visible Passes

Search period start: 07 July 2022 00:00
Search period end: 17 July 2022 00:00
Orbit: 414 x 420 km, 51.6° (Epoch: 06 July)

Date Brightness Start Highest point End Pass type
(mag) Time Alt. Az. Time Alt. Az. Time Alt. Az.
07 Jul -3.0 01:47:44 24° SSW 01:49:07 34° SSE 01:52:13 10° E visible
07 Jul -3.7 03:22:17 10° WSW 03:25:37 63° S 03:28:57 10° E visible
08 Jul -2.7 01:00:48 26° SSE 01:00:59 26° SSE 01:03:53 10° E visible
08 Jul -3.7 02:34:06 10° WSW 02:37:24 59° S 02:40:44 10° E visible
09 Jul -2.1 00:13:45 18° SE 00:13:45 18° SE 00:15:26 10° E visible
09 Jul -3.6 01:46:36 15° WSW 01:49:12 51° SSE 01:52:30 10° E visible
09 Jul -3.7 03:22:28 10° W 03:25:47 60° S 03:29:07 10° ESE visible
09 Jul -1.4 23:26:28 11° ESE 23:26:28 11° ESE 23:26:45 10° ESE visible
10 Jul -3.4 00:59:19 23° SW 01:01:01 42° SSE 01:04:13 10° E visible
10 Jul -3.8 02:34:14 10° W 02:37:34 63° S 02:40:55 10° E visible
11 Jul -3.1 00:11:30 24° SSW 00:12:50 33° SSE 00:15:55 10° E visible
11 Jul -3.8 01:45:59 10° WSW 01:49:20 63° S 01:52:39 10° E visible
11 Jul -3.5 03:22:39 10° W 03:25:53 45° SSW 03:29:08 10° ESE visible
11 Jul -2.8 23:21:50 10° SSW 23:24:41 26° SSE 23:27:32 10° E visible
12 Jul -3.8 00:57:46 10° WSW 01:01:04 58° S 01:04:23 10° E visible
12 Jul -3.7 02:34:22 10° W 02:37:40 54° SSW 02:40:58 10° ESE visible
12 Jul -2.4 22:34:06 10° SSW 22:36:33 19° SSE 22:39:02 10° E visible
13 Jul -3.7 00:09:35 10° WSW 00:12:50 50° SSE 00:16:07 10° E visible
13 Jul -3.8 01:46:05 10° W 01:49:25 60° S 01:52:44 10° ESE visible
13 Jul -2.9 03:22:53 10° W 03:25:51 29° SSW 03:28:49 10° SE visible
13 Jul -3.4 23:21:25 10° SW 23:24:36 41° SSE 23:27:47 10° E visible
14 Jul -3.9 00:57:49 10° W 01:01:08 63° S 01:04:29 10° E visible
14 Jul -3.3 02:34:31 10° W 02:37:40 37° SSW 02:40:48 10° SE visible
14 Jul -3.1 22:33:21 10° SW 22:36:23 32° SSE 22:39:26 10° E visible
15 Jul -3.8 00:09:32 10° WSW 00:12:51 62° S 00:16:12 10° E visible
15 Jul -3.6 01:46:11 10° W 01:49:25 46° SSW 01:52:40 10° ESE visible
15 Jul -2.2 03:23:24 10° WSW 03:25:39 17° SW 03:27:53 10° S visible
15 Jul -3.8 23:21:17 10° WSW 23:24:34 57° S 23:27:53 10° E visible
16 Jul -3.7 00:57:52 10° W 01:01:10 55° S 01:04:27 10° ESE visible
16 Jul -2.6 02:34:47 10° W 02:37:30 23° SSW 02:40:13 10° SSE visible
16 Jul -3.6 22:33:02 10° WSW 22:36:17 49° SSE 22:39:33 10° E visible
